Find Starlink 5997

NORAD ID: 56327 Int'l Des: 2023-058 Owner: SPXS Country: US Constellation: starlink operational
LEOCIRCULARRETROGRADESSO

Live Position

Loading 3D Globe...

About Starlink 5997

Description loading...

Upcoming Passes

Passes for default location (London). Set your location on the main map for personalized predictions.

Altitude History

Loading altitude history...

Two-Line Element Set

1 56327U 23058L 26125.98012644 .00003809 00000-0 26816-3 0 9997
2 56327 97.5306 126.4847 0002143 89.2880 270.8593 15.05626908166742
Epoch: May 5, 2026 • Age: 26 hours

Current Status

Altitude 559.0 km
Velocity 7.58 km/s
Sub-Earth Point -23.05°S, 50.29°E
Launch Date Apr 27, 2023
Age 3 years
Type internet

Technical Details

Classification Payload
Mass 300.00 kg
Dry Mass 260.00 kg
Total Mass 300.00 kg
Length 0.20 m
Diameter 2.80 m
Span 9.00 m
Shape Box + pan
Manufacturer SPXS
Bus Type Starlink
Phase Status In Orbit
Owner/State SPXS/US

Most Searched